Previsão horária em Abay

Hoje, 17 Abril, Sábado

Tempo Temperatura Precipitação Vento Pressão Humidade
00:00 +14°C° 0 mm 2 m/s 693 mmHg 64%
01:00 +14°C° 0 mm 2 m/s 693 mmHg 64%
02:00 +14°C° 0 mm 2 m/s 693 mmHg 64%
03:00 +13°C° 0 mm 2 m/s 693 mmHg 66%
04:00 +12°C° 0 mm 2 m/s 693 mmHg 68%
05:00 +12°C° 0 mm 2 m/s 693 mmHg 70%
06:00 +13°C° 0.1 mm 2 m/s 693 mmHg 67%
07:00 +15°C° 0.1 mm 2 m/s 694 mmHg 63%
08:00 +16°C° 0.1 mm 2 m/s 694 mmHg 60%
09:00 +17°C° 0.2 mm 2 m/s 694 mmHg 57%
10:00 +18°C° 0.2 mm 2 m/s 694 mmHg 53%
11:00 +19°C° 0.2 mm 2 m/s 694 mmHg 49%
12:00 +19°C° 0.2 mm 2 m/s 694 mmHg 49%
13:00 +19°C° 0.2 mm 2 m/s 694 mmHg 49%
14:00 +19°C° 0.2 mm 2 m/s 694 mmHg 49%
15:00 +19°C° 0.2 mm 2 m/s 694 mmHg 50%
16:00 +19°C° 0.2 mm 2 m/s 694 mmHg 50%
17:00 +19°C° 0.2 mm 2 m/s 694 mmHg 50%
18:00 +18°C° 0.3 mm 2 m/s 694 mmHg 55%
19:00 +16°C° 0.3 mm 2 m/s 694 mmHg 59%
20:00 +15°C° 0.3 mm 2 m/s 695 mmHg 64%
21:00 +15°C° 0 mm 2 m/s 694 mmHg 63%
22:00 +14°C° 0 mm 2 m/s 694 mmHg 61%
23:00 +14°C° 0 mm 2 m/s 694 mmHg 60%

Amanhã, 18 Abril, Domingo

Tempo Temperatura Precipitação Vento Pressão Humidade
00:00 +13°C° 0 mm 2 m/s 694 mmHg 59%
01:00 +13°C° 0 mm 2 m/s 693 mmHg 58%
02:00 +11°C° 0 mm 3 m/s 693 mmHg 57%
03:00 +11°C° 0 mm 3 m/s 693 mmHg 56%
04:00 +11°C° 0 mm 3 m/s 693 mmHg 55%
05:00 +12°C° 0 mm 2 m/s 693 mmHg 54%
06:00 +13°C° 0 mm 2 m/s 693 mmHg 52%
07:00 +15°C° 0 mm 1 m/s 693 mmHg 49%
08:00 +16°C° 0 mm 1 m/s 694 mmHg 47%
09:00 +18°C° 0 mm 1 m/s 694 mmHg 48%
10:00 +18°C° 0 mm 2 m/s 694 mmHg 49%
11:00 +18°C° 0 mm 2 m/s 693 mmHg 50%
12:00 +18°C° 0.4 mm 3 m/s 693 mmHg 52%
13:00 +18°C° 0.4 mm 3 m/s 693 mmHg 53%
14:00 +18°C° 0.4 mm 4 m/s 693 mmHg 55%
15:00 +17°C° 1 mm 4 m/s 693 mmHg 60%
16:00 +14°C° 1 mm 4 m/s 694 mmHg 66%
17:00 +13°C° 1 mm 4 m/s 694 mmHg 72%
18:00 +13°C° 1.1 mm 4 m/s 694 mmHg 73%
19:00 +12°C° 1.1 mm 4 m/s 695 mmHg 75%
20:00 +12°C° 1.1 mm 4 m/s 695 mmHg 77%
21:00 +12°C° 0.3 mm 3 m/s 695 mmHg 74%
22:00 +12°C° 0.3 mm 3 m/s 694 mmHg 71%
23:00 +12°C° 0.3 mm 3 m/s 694 mmHg 68%

Depois de amanhã, 19 Abril, Segunda-feira

Tempo Temperatura Precipitação Vento Pressão Humidade
00:00 +13°C° 0.1 mm 2 m/s 694 mmHg 67%
01:00 +13°C° 0.1 mm 2 m/s 694 mmHg 65%
02:00 +12°C° 0.1 mm 1 m/s 693 mmHg 64%
03:00 +12°C° 0.1 mm 1 m/s 694 mmHg 64%
04:00 +12°C° 0.1 mm 1 m/s 694 mmHg 64%
05:00 +12°C° 0.1 mm 1 m/s 694 mmHg 65%
06:00 +13°C° 0 mm 1 m/s 694 mmHg 60%
07:00 +14°C° 0 mm 1 m/s 694 mmHg 56%
08:00 +15°C° 0 mm 1 m/s 694 mmHg 52%
09:00 +16°C° 0 mm 1 m/s 694 mmHg 47%
10:00 +17°C° 0 mm 2 m/s 694 mmHg 41%
11:00 +19°C° 0 mm 2 m/s 694 mmHg 36%
12:00 +19°C° 0 mm 2 m/s 694 mmHg 36%
13:00 +19°C° 0 mm 3 m/s 693 mmHg 35%
14:00 +19°C° 0 mm 3 m/s 693 mmHg 34%
15:00 +19°C° 0 mm 2 m/s 693 mmHg 37%
16:00 +19°C° 0 mm 2 m/s 692 mmHg 39%
17:00 +19°C° 0 mm 1 m/s 692 mmHg 42%
18:00 +17°C° 0 mm 2 m/s 692 mmHg 45%
19:00 +15°C° 0 mm 2 m/s 693 mmHg 47%
20:00 +13°C° 0 mm 3 m/s 693 mmHg 50%
21:00 +13°C° 0 mm 3 m/s 692 mmHg 50%
22:00 +13°C° 0 mm 3 m/s 692 mmHg 50%
23:00 +12°C° 0 mm 3 m/s 691 mmHg 50%

20 Abril, Terça-feira

Tempo Temperatura Precipitação Vento Pressão Humidade
00:00 +12°C° 0 mm 3 m/s 691 mmHg 50%
01:00 +12°C° 0 mm 3 m/s 691 mmHg 50%
02:00 +11°C° 0 mm 3 m/s 691 mmHg 50%
03:00 +11°C° 0 mm 3 m/s 690 mmHg 51%
04:00 +11°C° 0 mm 3 m/s 690 mmHg 51%
05:00 +11°C° 0 mm 3 m/s 690 mmHg 52%
06:00 +14°C° 0 mm 2 m/s 690 mmHg 50%
07:00 +15°C° 0 mm 2 m/s 690 mmHg 47%
08:00 +18°C° 0 mm 1 m/s 690 mmHg 44%
09:00 +18°C° 0 mm 1 m/s 689 mmHg 44%
10:00 +18°C° 0 mm 2 m/s 689 mmHg 43%
11:00 +19°C° 0 mm 2 m/s 689 mmHg 42%
12:00 +19°C° 0.1 mm 2 m/s 689 mmHg 43%
13:00 +20°C° 0.1 mm 2 m/s 689 mmHg 43%
14:00 +20°C° 0.1 mm 2 m/s 688 mmHg 43%
15:00 +18°C° 0.7 mm 3 m/s 689 mmHg 55%
16:00 +16°C° 0.7 mm 3 m/s 689 mmHg 67%
17:00 +13°C° 0.7 mm 4 m/s 689 mmHg 79%
18:00 +12°C° 2.3 mm 3 m/s 689 mmHg 81%
19:00 +10°C° 2.3 mm 3 m/s 690 mmHg 83%
20:00 +9°C° 2.3 mm 3 m/s 691 mmHg 85%
21:00 +9°C° 0.4 mm 2 m/s 690 mmHg 87%
22:00 +8°C° 0.4 mm 2 m/s 690 mmHg 89%
23:00 +8°C° 0.4 mm 2 m/s 690 mmHg 91%

21 Abril, Quarta-feira

Tempo Temperatura Precipitação Vento Pressão Humidade
00:00 +7°C° 0.7 mm 2 m/s 690 mmHg 93%
01:00 +6°C° 0.7 mm 2 m/s 690 mmHg 95%
02:00 +5°C° 0.7 mm 2 m/s 690 mmHg 97%
03:00 +4°C° 1.2 mm 2 m/s 691 mmHg 97%
04:00 +4°C° 1.2 mm 2 m/s 691 mmHg 97%
05:00 +3°C° 1.2 mm 2 m/s 691 mmHg 97%
06:00 +3°C° 1.3 mm 2 m/s 692 mmHg 96%
07:00 +2°C° 1.3 mm 2 m/s 692 mmHg 96%
08:00 +2°C° 1.3 mm 2 m/s 693 mmHg 95%
09:00 +2°C° 0.7 mm 2 m/s 693 mmHg 94%
10:00 +2°C° 0.7 mm 2 m/s 693 mmHg 93%
11:00 +3°C° 0.7 mm 2 m/s 693 mmHg 92%
12:00 +3°C° 0.6 mm 2 m/s 694 mmHg 92%
13:00 +3°C° 0.6 mm 2 m/s 694 mmHg 91%
14:00 +3°C° 0.6 mm 2 m/s 694 mmHg 90%
15:00 +3°C° 0.4 mm 2 m/s 695 mmHg 89%
16:00 +4°C° 0.4 mm 1 m/s 695 mmHg 87%
17:00 +4°C° 0.4 mm 1 m/s 695 mmHg 86%
18:00 +4°C° 0 mm 1 m/s 696 mmHg 88%
19:00 +3°C° 0 mm 1 m/s 696 mmHg 89%
20:00 +3°C° 0 mm 1 m/s 697 mmHg 90%
21:00 +3°C° 0 mm 1 m/s 697 mmHg 89%
22:00 +3°C° 0 mm 1 m/s 697 mmHg 89%
23:00 +2°C° 0 mm 0 m/s 697 mmHg 88%

22 Abril, Quinta-feira

Tempo Temperatura Precipitação Vento Pressão Humidade
00:00 +1°C° 0 mm 0 m/s 697 mmHg 87%
01:00 +1°C° 0 mm 0 m/s 697 mmHg 86%
02:00 +1°C° 0 mm 0 m/s 697 mmHg 85%
03:00 +1°C° 0 mm 0 m/s 697 mmHg 84%
04:00 +1°C° 0 mm 0 m/s 697 mmHg 84%
05:00 +1°C° 0 mm 0 m/s 698 mmHg 83%
06:00 +2°C° 0 mm 1 m/s 698 mmHg 80%
07:00 +3°C° 0 mm 1 m/s 698 mmHg 78%
08:00 +4°C° 0 mm 1 m/s 699 mmHg 76%
09:00 +5°C° 0 mm 1 m/s 699 mmHg 73%
10:00 +6°C° 0 mm 1 m/s 699 mmHg 70%
11:00 +6°C° 0 mm 1 m/s 699 mmHg 67%
12:00 +7°C° 0 mm 1 m/s 699 mmHg 65%
13:00 +6°C° 0 mm 2 m/s 699 mmHg 63%
14:00 +7°C° 0 mm 2 m/s 699 mmHg 61%
15:00 +8°C° 0 mm 1 m/s 700 mmHg 61%
16:00 +8°C° 0 mm 1 m/s 700 mmHg 61%
17:00 +8°C° 0 mm 1 m/s 700 mmHg 60%
18:00 +5°C° 0 mm 2 m/s 701 mmHg 61%
19:00 +4°C° 0 mm 2 m/s 701 mmHg 62%
20:00 +2°C° 0 mm 2 m/s 702 mmHg 62%
21:00 +2°C° 0 mm 2 m/s 701 mmHg 60%
22:00 +2°C° 0 mm 2 m/s 701 mmHg 58%
23:00 +1°C° 0 mm 2 m/s 701 mmHg 56%
Mostrar mais

Necessitamos do seu Consentimento

A Meteoprog e os seus Fornecedores de Serviços podem armazenar e aceder a dados pessoais como cookies, identificadores do dispositivo ou outras tecnologias semelhantes existentes no seu dispositivo e processar estes dados para personalizar conteúdos e anúncios, assim como funcionalidades nas redes sociais e análise de tráfego.

  • Armazenar e/ou aceder a informações no seu dispositivo

    Os cookies, identificadores do dispositivo ou outras informações podem ser armazenados ou acedidos no seu dispositivo, para os fins acima indicados.

  • Anúncios e conteúdos personalizados, medição de anúncios e conteúdos, dados sobre o público-alvo e desenvolvimento de produtos

    Os anúncios e os conteúdos podem ser personalizados com base num perfil. Podem ser adicionados dados adicionais para uma maior personalização dos anúncios e dos conteúdos. A eficácia dos anúncios e dos conteúdos pode ser medida. Podem ser obtidas informações sobre o público que visualizou os anúncios e os conteúdos. Estes dados podem ser usados para desenvolver ou melhorar sistemas, softwares ou a experiência do utilizador.

Ao clicar em "Eu concordo”, permitirá o uso de cookies, identificadores do dispositivo e web beacons mencionados ou outras tecnologias semelhantes. As configurações do navegador do seu dispositivo podem ser alteradas.

Para certos fins, podem ser invocados interesses legítimos ao invés de consentimento. Pode ler mais informação sobre este assunto na nossa Política de Privacidade e Cookies.